Powrót do katalogu

FENGYUN 1C DEB

AktywnySSO
NORAD 31692·DEBRIS·🇨🇳 China

Wystrzelony May 10, 1999 z Taiyuan Satellite Launch Center

Loading…

Następne Przeloty (najbliższe 24 godziny)

TLE

Starzejące sięSource: Space-Track

Epoka: Sep 6, 2026, 07:00 UTC

1 31692U 99025CDA 26249.29174249  .00002928  00000-0  13178-2 0  9990
2 31692  99.1806 260.6533 0086755  43.7634 317.0375 14.21123170620061

Śledź FENGYUN 1C DEB w czasie rzeczywistym z AllMySat

Download on the App Store